[[{"header":{"parameterUnit":"m.s-1","parameterCategory":1,"la1":30.2991,"la2":30.254,"lo1":-89.0895,"lo2":-89.0444,"dy":0.0017,"dx":0.0017,"nx":28,"ny":28,"refTime":"2026-02-08T03:00:00:Z","depth":0,"parameterNumber":2,"parameterNumberName":"U-component_of_WINDS"},"data":[0,0,0,0,0,0,0,0,0,0,0,0,0,0,0,0,0,0,0,0,0,0,0,0,0,0,0,0,0,0,0,0,0,0,0,0,0,0,0,0,0,0,0,0,0,0,0,0,0,0,0,0,0,0,0,0,0,0,3.0246,3.0247,0,3.0356,3.0357,3.0358,3.0336,3.0334,3.0332,3.033,3.0447,3.0451,3.0456,0,0,0,0,0,0,0,0,0,0,0,0,0,3.0021,3.0026,3.0246,3.0247,3.0248,3.0356,3.0357,3.0359,3.0336,3.0334,3.0331,3.0329,3.0445,3.0451,3.0457,0,0,0,0,0,0,0,0,0,0,0,0,0,3.0124,3.0027,3.0245,3.025,3.0252,3.0355,3.0357,3.0359,3.0337,3.0334,3.0331,3.0328,3.0443,3.045,3.0458,3.0565,0,0,3.048,3.0484,0,0,0,0,0,0,0,0,3.0118,3.0132,3.0248,3.025,3.0252,3.0329,3.0321,3.0428,3.0337,3.0305,3.033,3.0326,3.041,3.042,3.0448,3.057,3.0575,3.0481,3.0486,3.0489,3.0491,0,0,0,0,0,0,0,3.0111,3.0127,3.0289,3.025,3.0252,3.0248,3.026,3.0341,3.0373,3.0307,3.0306,3.0319,3.0411,3.044,3.045,3.0577,3.0481,3.0488,3.0492,3.0495,3.0796,3.08,0,0,0,0,0,0,3.0102,3.0122,3.0286,3.0293,3.0176,3.0255,3.0267,3.0307,3.0372,3.0379,3.0321,3.0317,3.0429,3.0441,3.0454,3.0586,3.0489,3.0496,3.05,3.0793,3.0797,3.0801,0,0,0,0,0,0,3.0097,3.0117,3.0281,3.0207,3.0227,3.0262,3.0307,3.0311,3.0341,3.0383,3.0389,3.0346,3.0427,3.0444,3.0538,3.059,3.0499,3.0506,3.0789,3.0794,3.0799,3.0849,0,0,0,0,0,0,3.0091,3.0115,3.0155,3.0208,3.0232,3.0362,3.031,3.0315,3.0353,3.0349,3.0407,3.0414,3.0426,3.0527,3.0545,3.0598,3.0512,3.0784,3.0791,3.0797,3.0843,3.0856,3.0866,0,0,0,0,0,3.0083,3.0164,3.0157,3.0177,3.0282,3.0365,3.0378,3.0389,3.0357,3.0399,3.0426,3.0412,3.0581,3.0537,3.0557,3.0613,3.0781,3.0789,3.0797,3.0838,3.0853,3.0866,0,0,0,0,0,0,3.0117,3.0171,3.0163,3.0264,3.031,3.0361,3.0413,3.0405,3.0461,3.0455,3.0468,3.0481,3.0578,3.0605,3.0555,3.0722,3.0677,3.0689,3.0701,3.0716,3.0727,3.0719,3.0518,0,0,0,0,0,3.0136,3.0198,3.0242,3.0327,3.0351,3.0378,3.0414,3.0419,3.0468,3.0487,3.0521,3.057,3.0634,3.0676,3.0737,3.0847,3.0861,3.0896,3.0907,3.0917,3.0928,3.099,3.1007,3.0827,3.0827,3.0827,0,0,3.0177,3.0214,3.0252,3.0335,3.0371,3.0437,3.0394,3.0464,3.0514,3.0498,3.0589,3.0617,3.0672,3.0775,3.0822,3.0801,3.098,3.0927,3.0934,3.094,3.1,3.1017,3.1032,3.0832,3.0831,3.0831,0,0,3.0284,3.0318,3.0393,3.043,3.0485,3.0503,3.0521,3.0574,3.0591,3.0683,3.0673,3.0733,3.0842,3.0883,3.0918,3.1044,3.1034,3.1064,3.1124,3.1185,3.1199,3.1212,3.1259,3.1276,3.1074,3.1074,3.1074,0,3.0328,3.0425,3.0434,3.0506,3.0544,3.0532,3.061,3.0646,3.0719,3.0746,3.0721,3.086,3.0896,3.101,3.104,3.1068,3.1092,3.1057,3.1196,3.1209,3.1221,3.1266,3.1284,3.1078,3.1077,3.1077,3.1077,0,3.0477,3.0544,3.0599,3.0669,3.0713,3.0788,3.0811,3.0855,3.0856,3.0878,3.0973,3.1016,3.1087,3.1114,3.1116,3.123,3.1215,3.1193,3.1148,3.1242,3.1284,3.1302,3.1082,3.1081,3.108,3.1079,0,0,3.0609,3.0684,3.0704,3.0737,3.0797,3.085,3.0926,3.0995,3.1033,3.1084,3.115,3.1244,3.1224,3.1264,3.1271,3.1325,3.1425,3.1297,3.1298,3.1321,3.1555,3.1572,3.1592,3.1418,3.1421,3.1424,3.1551,0,3.0723,3.0855,3.0866,3.0985,3.1049,3.104,3.1106,3.1152,3.1175,3.1234,3.1259,3.1327,3.1295,3.1319,3.1372,3.1401,3.1472,3.1392,3.1481,3.1484,3.1469,3.1613,3.1631,3.1749,3.1567,3.157,3.1572,0,3.0874,3.0929,3.1055,3.1109,3.1136,3.1195,3.126,3.1316,3.1369,3.1382,3.1427,3.1428,3.1508,3.146,3.1572,3.1517,3.1555,3.1575,3.158,3.159,3.1535,3.1629,3.1786,3.1804,3.1598,3.1596,3.1594,0,3.096,3.1066,3.1155,3.1183,3.1248,3.129,3.1319,3.1369,3.141,3.1468,3.1495,3.1562,3.1599,3.1651,3.1671,3.1633,3.1784,3.1736,3.1799,3.1798,3.1831,3.1829,3.1998,3.1853,3.1853,3.1852,3.1852,0,3.1087,3.1165,3.1195,3.125,3.1338,3.1351,3.1438,3.1465,3.151,3.1572,3.1569,3.1627,3.1648,3.1712,3.1727,3.182,3.1836,3.185,3.1854,3.1852,3.185,3.1877,3.187,3.1857,3.1856,3.1855,3.1854,0,3.1198,3.122,3.1318,3.1371,3.1387,3.1449,3.1496,3.1551,3.1573,3.1652,3.1671,3.1707,3.1781,3.1805,3.1895,3.1906,3.2014,3.201,3.1996,3.1997,3.2059,3.2054,3.2253,3.2281,3.2116,3.2117,3.2118,0,3.1278,3.1337,3.1398,3.1439,3.1469,3.1535,3.1578,3.1594,3.1639,3.1705,3.1752,3.1826,3.1885,3.2005,3.204,3.2109,3.2108,3.2173,3.2118,3.2115,3.2111,3.2108,3.2115,3.2183,3.2185,3.2186,3.2188,0,3.1419,3.1428,3.1488,3.1554,3.1604,3.1657,3.1708,3.1742,3.1767,3.1818,3.1893,3.1939,3.2031,3.2105,3.2177,3.2209,3.2204,3.2204,3.2223,3.2222,3.2212,3.222,3.2026,3.22,3.2199,3.2198,3.2197,3.2197,3.1518,3.1571,3.1623,3.1691,3.1731,3.178,3.1834,3.1864,3.1926,3.2002,3.2008,3.2091,3.2145,3.224,3.2276,3.2342,3.2324,3.235,3.2357,3.2364,3.237,3.2201,3.2355,3.2355,3.2354,3.2354,3.2354,0,3.166,3.1693,3.1756,3.1827,3.1882,3.1871,3.1928,3.1975,3.2047,3.2097,3.2156,3.2244,3.2316,3.2358,3.2431,3.2476,3.2476,3.2495,3.2492,3.25,3.2381,3.2358,3.2494,3.2494,3.2494,3.2494,3.2494,3.2494,3.174,3.1831,3.1847,3.1958,3.1991,3.2071,3.2105,3.215,3.2191,3.2289,3.2349,3.2375,3.2423,3.2499,3.2566,3.2577,3.2605,3.2626,3.2635,3.2523,3.2508,3.2495,3.2474,3.2632,3.2632,3.2749,3.2751,3.2751]},{"header":{"parameterUnit":"m.s-1","parameterCategory":1,"la1":30.2991,"la2":30.254,"lo1":-89.0895,"lo2":-89.0444,"dy":0.0017,"dx":0.0017,"nx":28,"ny":28,"refTime":"2026-02-08T03:00:00:Z","depth":0,"parameterNumber":3,"parameterNumberName":"V-component_of_WINDS"},"data":[0,0,0,0,0,0,0,0,0,0,0,0,0,0,0,0,0,0,0,0,0,0,0,0,0,0,0,0,0,0,0,0,0,0,0,0,0,0,0,0,0,0,0,0,0,0,0,0,0,0,0,0,0,0,0,0,0,0,1.1514,1.1515,0,1.1585,1.1586,1.1586,1.1611,1.1611,1.161,1.161,1.1683,1.1685,1.1688,0,0,0,0,0,0,0,0,0,0,0,0,0,1.1402,1.1404,1.1514,1.1515,1.1516,1.1585,1.1586,1.1587,1.1611,1.1611,1.161,1.161,1.1683,1.1685,1.1688,0,0,0,0,0,0,0,0,0,0,0,0,0,1.146,1.1405,1.1514,1.1536,1.1539,1.1585,1.1586,1.1587,1.1611,1.1611,1.161,1.161,1.1682,1.1685,1.1688,1.1717,0,0,1.1698,1.17,0,0,0,0,0,0,0,0,1.1456,1.1464,1.1532,1.1535,1.1538,1.1589,1.1573,1.1631,1.1611,1.1584,1.161,1.161,1.1652,1.1658,1.1672,1.172,1.1724,1.1699,1.1701,1.1702,1.1703,0,0,0,0,0,0,0,1.1452,1.1461,1.1542,1.1533,1.1537,1.1543,1.1551,1.1584,1.1619,1.1586,1.1588,1.1596,1.1654,1.1669,1.1674,1.1725,1.1698,1.1701,1.1703,1.1705,1.1801,1.1802,0,0,0,0,0,0,1.1445,1.1457,1.154,1.1544,1.1495,1.1546,1.1554,1.1573,1.1619,1.1626,1.1596,1.1597,1.1663,1.167,1.1677,1.1714,1.1702,1.1705,1.1707,1.1801,1.1802,1.1802,0,0,0,0,0,0,1.1442,1.1452,1.1537,1.1502,1.1513,1.1548,1.1569,1.1574,1.159,1.1627,1.1633,1.1605,1.1663,1.1672,1.1707,1.1717,1.1707,1.171,1.18,1.1801,1.1802,1.1789,0,0,0,0,0,0,1.1439,1.1451,1.1461,1.1502,1.1515,1.1566,1.1569,1.1576,1.1595,1.1597,1.1637,1.1643,1.1664,1.1702,1.171,1.1722,1.1712,1.1799,1.1801,1.1802,1.1789,1.179,1.179,0,0,0,0,0,1.1435,1.1455,1.1462,1.1472,1.1529,1.1566,1.1574,1.1597,1.1596,1.1607,1.1632,1.1642,1.1715,1.1705,1.1715,1.1727,1.1799,1.18,1.1802,1.1789,1.1789,1.179,0,0,0,0,0,0,1.1415,1.1461,1.1469,1.1503,1.153,1.157,1.1586,1.1597,1.1626,1.1626,1.1653,1.1662,1.1695,1.1715,1.1704,1.1758,1.1757,1.1761,1.1744,1.1745,1.1746,1.1741,1.1715,0,0,0,0,0,1.1415,1.1441,1.1479,1.1506,1.1519,1.155,1.1567,1.1582,1.1612,1.1624,1.1651,1.168,1.171,1.1729,1.1758,1.1792,1.1802,1.1805,1.1806,1.1806,1.1809,1.1829,1.1832,1.1807,1.1807,1.1807,0,0,1.1414,1.1443,1.1457,1.1503,1.1526,1.1553,1.156,1.1588,1.1608,1.1629,1.1664,1.1684,1.1719,1.1753,1.177,1.1771,1.1818,1.1808,1.1808,1.181,1.1831,1.1833,1.1835,1.1807,1.1807,1.1807,0,0,1.1428,1.1451,1.1476,1.1499,1.1535,1.1555,1.1561,1.16,1.1614,1.1649,1.1666,1.1691,1.1741,1.1765,1.1784,1.1807,1.1818,1.1816,1.1819,1.1839,1.1841,1.1843,1.1852,1.1855,1.1818,1.1818,1.1818,0,1.1423,1.1464,1.1488,1.1515,1.1535,1.1555,1.1581,1.1602,1.1645,1.1659,1.1659,1.1723,1.1747,1.1789,1.1794,1.1809,1.1817,1.1812,1.1839,1.1841,1.1843,1.1852,1.1856,1.1818,1.1818,1.1818,1.1818,0,1.1457,1.1485,1.1501,1.1542,1.1564,1.159,1.1619,1.1638,1.1651,1.1672,1.1708,1.1739,1.1775,1.1786,1.1799,1.1829,1.1829,1.1833,1.1833,1.1845,1.1854,1.1858,1.1817,1.1817,1.1818,1.1818,0,0,1.1459,1.1514,1.1519,1.1539,1.158,1.1602,1.163,1.1665,1.1682,1.1711,1.1736,1.1778,1.1783,1.1804,1.1821,1.1838,1.1856,1.1841,1.1842,1.1843,1.1892,1.1889,1.1893,1.1863,1.1864,1.1865,1.189,0,1.1479,1.1529,1.1551,1.1592,1.1619,1.1638,1.1663,1.1691,1.1711,1.1738,1.176,1.179,1.1794,1.1807,1.1825,1.185,1.1866,1.1848,1.1887,1.1889,1.1879,1.1897,1.1894,1.1916,1.1893,1.1894,1.1894,0,1.1507,1.1537,1.158,1.1619,1.1631,1.1652,1.1687,1.1712,1.1744,1.1758,1.1782,1.1798,1.1829,1.1827,1.187,1.1857,1.1875,1.189,1.1891,1.1896,1.1892,1.1904,1.1923,1.1927,1.19,1.19,1.1899,0,1.1506,1.1557,1.1589,1.1605,1.1651,1.1666,1.1685,1.1717,1.1737,1.1768,1.1781,1.1815,1.1834,1.186,1.1885,1.188,1.1926,1.1926,1.1939,1.1939,1.1948,1.1948,1.1972,1.1958,1.1958,1.1958,1.1958,0,1.1525,1.1551,1.1589,1.1609,1.1639,1.1665,1.1695,1.1716,1.1744,1.177,1.1788,1.1812,1.1843,1.1871,1.189,1.1924,1.1932,1.1945,1.195,1.1943,1.1942,1.1956,1.1955,1.1959,1.1959,1.1959,1.1959,0,1.1529,1.1555,1.1593,1.1633,1.1644,1.1664,1.1699,1.1719,1.1741,1.1773,1.1782,1.1815,1.1849,1.1876,1.192,1.1933,1.1969,1.1974,1.1958,1.1961,1.1973,1.1972,1.2008,1.2015,1.1996,1.1996,1.1996,0,1.154,1.156,1.1603,1.1621,1.164,1.1669,1.169,1.1717,1.1738,1.1777,1.1793,1.1828,1.1857,1.191,1.1939,1.1973,1.198,1.199,1.1985,1.1979,1.1981,1.198,1.1983,1.1991,1.1991,1.1991,1.1991,0,1.1556,1.1569,1.1598,1.1631,1.1656,1.1684,1.1712,1.1726,1.1758,1.1781,1.1815,1.1838,1.1883,1.1918,1.1955,1.1976,1.199,1.1992,1.1998,1.1992,1.1982,1.1988,1.196,1.1992,1.1992,1.1992,1.1992,1.1991,1.1565,1.1584,1.1617,1.1649,1.1673,1.17,1.1722,1.1746,1.1775,1.1814,1.1828,1.1864,1.1897,1.1948,1.197,1.1999,1.2,1.2007,1.2009,1.2011,1.201,1.1976,1.2005,1.2005,1.2005,1.2005,1.2005,0,1.1583,1.1605,1.1634,1.1674,1.1699,1.1709,1.1741,1.1762,1.1793,1.1823,1.1852,1.1892,1.1926,1.1958,1.1994,1.2011,1.2018,1.2019,1.2019,1.2024,1.2007,1.1999,1.2013,1.2013,1.2013,1.2013,1.2013,1.2013,1.1595,1.1629,1.1645,1.1692,1.1715,1.1749,1.1767,1.1792,1.1816,1.186,1.1889,1.1909,1.194,1.1979,1.2011,1.2019,1.2032,1.2032,1.2042,1.2026,1.2025,1.2024,1.2017,1.2034,1.2034,1.2057,1.2057,1.2058]}]]